EST,Max TemperatureF,Mean TemperatureF,Min TemperatureF,Max Dew PointF,MeanDew PointF,Min DewpointF,Max Humidity, Mean Humidity, Min Humidity, Max Sea Level PressureIn, Mean Sea Level PressureIn, Min Sea Level PressureIn, Max VisibilityMiles, Mean VisibilityMiles, Min VisibilityMiles, Max Wind SpeedMPH, Mean Wind SpeedMPH, Max Gust SpeedMPH,PrecipitationIn, CloudCover, Events, WindDirDegrees
2013-12-1,77,73,69,68,66,64,90,82,74,30.10,30.03,29.97,10,10,10,13,9,17,0.00,0,,356
2013-12-2,76,71,65,66,65,62,93,81,69,29.96,29.92,29.86,10,10,10,14,6,19,0.00,2,,321
2013-12-3,82,73,64,68,65,62,93,74,54,30.01,29.96,29.91,10,10,10,9,4,13,0.00,3,,150
2013-12-4,83,79,74,70,68,66,82,74,65,30.08,30.04,29.98,10,10,10,8,5,14,0.00,0,,118
2013-12-5,83,79,74,70,67,65,79,71,62,30.15,30.09,30.05,10,10,10,10,7,17,0.00,0,,104
2013-12-6,83,80,76,72,69,65,74,69,64,30.17,30.11,30.06,10,10,4,14,8,23,0.05,2,Rain,114
2013-12-7,83,79,75,71,69,66,82,74,65,30.19,30.15,30.12,10,10,10,13,8,20,T,2,,81
2013-12-8,83,79,74,72,69,67,79,72,65,30.18,30.13,30.10,10,10,7,13,9,21,0.01,2,Rain,100
2013-12-9,83,80,76,72,69,67,79,69,58,30.17,30.12,30.08,10,10,9,15,9,23,0.02,2,Rain,105
2013-12-10,85,81,77,73,72,70,85,77,69,30.14,30.11,30.08,10,10,10,10,6,18,0.01,1,,97
2013-12-11,82,77,72,75,73,69,100,87,74,30.18,30.13,30.09,10,7,1,16,7,21,1.50,6,Rain,77
2013-12-12,82,76,70,75,71,62,100,85,69,30.20,30.14,30.11,10,9,4,21,11,27,0.48,4,Rain,33
2013-12-13,81,76,70,72,68,64,87,75,62,30.15,30.10,30.05,10,10,10,21,14,29,0.04,3,Rain,67
2013-12-14,83,79,75,73,72,70,85,77,69,30.08,30.03,29.98,10,10,10,14,9,22,T,2,,130
2013-12-15,86,81,75,76,74,72,94,82,70,30.07,30.01,29.96,10,10,2,10,6,17,0.06,2,Rain,221
2013-12-16,76,73,69,71,66,61,87,76,64,30.15,30.09,30.04,10,10,10,15,10,20,0.00,6,,9
2013-12-17,78,73,68,68,65,63,87,78,69,30.17,30.13,30.07,10,10,10,16,11,21,0.00,5,,29
2013-12-18,76,73,69,64,61,57,79,67,54,30.22,30.17,30.12,10,10,10,17,12,22,0.00,0,,30
2013-12-19,79,74,68,70,64,62,87,73,58,30.21,30.16,30.12,10,10,10,16,11,23,0.00,2,,60
2013-12-20,82,79,76,71,71,70,82,76,69,30.15,30.11,30.07,10,10,10,15,10,25,T,3,,98
2013-12-21,83,80,77,73,71,70,82,76,69,30.12,30.07,30.03,10,10,10,15,11,24,0.00,2,,118
2013-12-22,83,81,78,74,72,70,85,77,69,30.14,30.10,30.06,10,10,9,16,10,25,T,2,Rain,123
2013-12-23,84,81,77,74,72,70,85,78,70,30.17,30.14,30.10,10,10,10,14,8,22,0.00,1,,127
2013-12-24,81,75,69,74,69,64,97,86,74,30.18,30.12,30.07,10,10,10,20,7,28,0.00,2,,7
2013-12-25,79,74,69,72,69,64,100,87,74,30.13,30.09,30.06,10,8,2,22,13,28,0.48,6,Rain,47
2013-12-26,79,76,72,73,71,69,100,87,74,30.14,30.08,30.04,10,10,5,13,9,,0.08,4,Rain,47
2013-12-27,82,78,74,76,73,72,100,90,79,30.16,30.11,30.07,10,10,8,15,10,22,T,4,Rain,64
2013-12-28,83,80,77,73,72,71,88,81,74,30.14,30.07,30.02,10,10,10,15,10,25,T,2,,105
2013-12-29,80,76,72,76,74,71,100,90,79,30.06,30.00,29.96,10,10,4,13,6,20,0.03,2,Rain,165
2013-12-30,79,75,71,74,73,71,100,93,85,30.12,30.06,29.99,10,10,6,13,6,16,0.00,5,,2
2013-12-31,79,75,70,74,72,67,100,91,82,30.18,30.13,30.09,10,9,4,24,14,30,0.01,7,Rain,42